Change the Weather History Date:

Thursday, April 3, 2014

  Actual Average (KTOL) Record (KTOL)
Temperature  
Mean Temperature 36 °F 45 °F  
Max Temperature 39 °F 55 °F 79 °F (2007)
Min Temperature 32 °F 34 °F 15 °F (1879)
Degree Days  
Heating Degree Days 30 20  
Month to date heating degree days 62  
Since 1 July heating degree days 5488  
Cooling Degree Days 0 0  
Month to date cooling degree days 0  
Year to date cooling degree days 0  
Moisture  
Dew Point 30 °F    
Average Humidity 81    
Maximum Humidity 100    
Minimum Humidity 56    
Precipitation  
Precipitation 0.00 in 0.10 in 1.15 in (2014)
Month to date precipitation 0.30  
Year to date precipitation 6.90  
Snow  
Snow 0.00 in 0.10 in - ()
Month to date snowfall 0.3  
Since 1 July snowfall 36.5  
Snow Depth -    
Sea Level Pressure  
Sea Level Pressure 29.99 in    
Wind  
Wind Speed 16 mph (East)    
Max Wind Speed 26 mph    
Max Gust Speed -    
Visibility 6 miles    
Events Rain    
T = Trace of Precipitation, MM = Missing Value Source: NWS Daily Summary

Daily Weather History Graph

Daily Weather History Graph

Search for Another Location

Airport or City:

Trip Planner

Search our weather history database for the weather conditions in past years. The results will help you decide how hot, cold, wet, or windy it might be!

Date:

Astronomy

Apr. 03, 2014 Rise Set
Actual Time 7:11 AM EDT 7:58 PM EDT
Civil Twilight 6:43 AM EDT 8:27 PM EDT
Nautical Twilight 6:09 AM EDT 9:00 PM EDT
Astronomical Twilight 5:35 AM EDT 9:35 PM EDT
Moon 9:36 AM EDT (4/3) No Moon Set
Length of Visible Light 13h 43m
Length of Day
12h 47m
Waxing Crescent, 17% of the Moon is Illuminated
Apr 3
Waxing Crescent
Apr 7
First Quarter
Apr 15
Full
Apr 22
Last Quarter
Apr 29
New

Hourly Weather History & Observations

Time (EDT) Temp. Windchill Dew Point Humidity Pressure Visibility Wind Dir Wind Speed Gust Speed Precip Events Conditions
12:14 AM 39.2 °F 32.5 °F 30.2 °F 70% 30.14 in 10.0 mi East 10.4 mph - N/A   Overcast
12:33 AM 39.2 °F 33.0 °F 30.2 °F 70% 30.14 in 10.0 mi East 9.2 mph - N/A   Overcast
12:53 AM 38.8 °F 31.2 °F 29.1 °F 68% 30.14 in 10.0 mi ENE 12.7 mph - N/A   Overcast
1:14 AM 39.2 °F 31.2 °F 28.4 °F 65% 30.14 in 10.0 mi East 13.8 mph - N/A   Overcast
1:33 AM 37.4 °F 29.3 °F 28.4 °F 70% 30.15 in 10.0 mi East 12.7 mph - N/A   Overcast
1:53 AM 37.4 °F 27.8 °F 28.4 °F 70% 30.14 in 10.0 mi East 17.3 mph - N/A   Overcast
2:14 AM 37.4 °F 28.2 °F 28.4 °F 70% 30.13 in 10.0 mi East 16.1 mph - N/A   Overcast
2:33 AM 37.4 °F 28.5 °F 30.2 °F 75% 30.13 in 10.0 mi East 15.0 mph - N/A   Overcast
2:53 AM 37.4 °F 28.9 °F 30.2 °F 75% 30.12 in 10.0 mi East 13.8 mph - N/A   Overcast
3:13 AM 37.4 °F 28.9 °F 30.2 °F 75% 30.11 in 10.0 mi East 13.8 mph - N/A   Overcast
3:33 AM 35.6 °F 25.9 °F 28.4 °F 75% 30.11 in 10.0 mi East 16.1 mph - N/A   Mostly Cloudy
3:54 AM 36.0 °F 26.7 °F 29.1 °F 76% 30.10 in 10.0 mi East 15.0 mph - N/A   Mostly Cloudy
4:13 AM 35.6 °F 25.9 °F 28.4 °F 75% 30.10 in 10.0 mi East 16.1 mph - N/A   Overcast
4:33 AM 35.6 °F 25.5 °F 28.4 °F 75% 30.11 in 10.0 mi East 17.3 mph - N/A   Overcast
4:54 AM 35.6 °F 24.8 °F 28.4 °F 75% 30.09 in 10.0 mi East 19.6 mph - N/A   Overcast
5:13 AM 35.6 °F 26.6 °F 26.6 °F 70% 30.11 in 10.0 mi East 13.8 mph - N/A   Overcast
5:33 AM 35.6 °F 25.9 °F 26.6 °F 70% 30.12 in 10.0 mi East 16.1 mph - N/A   Overcast
5:54 AM 36.0 °F 26.0 °F 24.1 °F 62% 30.11 in 10.0 mi East 17.3 mph - N/A   Overcast
6:13 AM 35.6 °F 25.5 °F 24.8 °F 65% 30.11 in 10.0 mi East 17.3 mph - N/A   Overcast
6:33 AM 35.6 °F 25.5 °F 24.8 °F 65% 30.12 in 10.0 mi East 17.3 mph - N/A   Overcast
6:53 AM 35.6 °F 24.8 °F 23.0 °F 60% 30.10 in 10.0 mi East 19.6 mph - N/A   Overcast
7:13 AM 35.6 °F 24.8 °F 21.2 °F 56% 30.09 in 10.0 mi East 19.6 mph - N/A   Overcast
7:34 AM 35.6 °F 24.8 °F 23.0 °F 60% 30.09 in 10.0 mi East 19.6 mph - N/A   Overcast
7:53 AM 35.6 °F 25.2 °F 24.8 °F 65% 30.11 in 10.0 mi ENE 18.4 mph - N/A   Overcast
8:13 AM 35.6 °F 25.5 °F 24.8 °F 65% 30.10 in 10.0 mi East 17.3 mph - N/A   Mostly Cloudy
8:34 AM 35.6 °F 24.5 °F 24.8 °F 65% 30.07 in 10.0 mi East 20.7 mph - N/A Rain Light Rain
8:53 AM 35.6 °F 25.9 °F 24.8 °F 65% 30.06 in 10.0 mi East 16.1 mph - N/A   Mostly Cloudy
9:14 AM 35.6 °F 25.2 °F 26.6 °F 70% 30.06 in 10.0 mi East 18.4 mph - N/A   Mostly Cloudy
9:34 AM 33.8 °F 22.8 °F 26.6 °F 75% 30.06 in 10.0 mi East 18.4 mph - N/A Rain Light Rain
9:53 AM 34.0 °F 22.7 °F 28.0 °F 79% 30.08 in 10.0 mi East 19.6 mph - N/A Rain Light Rain
10:14 AM 33.8 °F 23.2 °F 28.4 °F 81% 30.08 in 10.0 mi ENE 17.3 mph - N/A Rain Light Rain
10:34 AM 33.8 °F 24.3 °F 28.4 °F 81% 30.07 in 7.0 mi East 13.8 mph - N/A Rain Light Rain
10:53 AM 33.8 °F 23.5 °F 28.4 °F 81% 30.06 in 5.0 mi East 16.1 mph - N/A Rain Light Rain
11:14 AM 33.8 °F 23.5 °F 28.4 °F 81% 30.07 in 5.0 mi ENE 16.1 mph - N/A Rain Light Rain
11:33 AM 33.8 °F 23.2 °F 28.4 °F 81% 30.04 in 4.0 mi East 17.3 mph - N/A Rain Rain
11:53 AM 33.8 °F 22.8 °F 28.4 °F 81% 30.01 in 4.0 mi East 18.4 mph - N/A Rain Rain
12:14 PM 33.8 °F 22.5 °F 30.2 °F 87% 29.99 in 3.0 mi East 19.6 mph - N/A Rain Rain
12:33 PM 33.8 °F 21.9 °F 30.2 °F 87% 30.00 in 4.0 mi East 21.9 mph - N/A Rain Rain
12:53 PM 32.9 °F 20.7 °F 30.0 °F 89% 29.99 in 3.0 mi East 21.9 mph - N/A Rain Rain
1:03 PM 33.8 °F 22.8 °F 30.2 °F 87% 29.98 in 3.0 mi East 18.4 mph - N/A Rain Rain
1:34 PM 33.8 °F 22.2 °F 30.2 °F 87% 29.94 in 2.5 mi East 20.7 mph - N/A Rain Heavy Rain
1:53 PM 33.8 °F 22.5 °F 30.2 °F 87% 29.94 in 2.5 mi East 19.6 mph - N/A Rain Heavy Rain
2:14 PM 33.8 °F 24.3 °F 30.2 °F 87% 29.96 in 1.8 mi East 13.8 mph - N/A Rain Heavy Rain
2:34 PM 33.8 °F 22.8 °F 30.2 °F 87% 29.96 in 2.5 mi East 18.4 mph - N/A Rain Rain
2:50 PM 33.8 °F 22.2 °F 30.2 °F 87% 29.93 in 2.0 mi East 20.7 mph - N/A Rain Rain
3:14 PM 33.8 °F 22.8 °F 32.0 °F 93% 29.90 in 2.5 mi East 18.4 mph - N/A Rain Rain
3:34 PM 33.8 °F 22.2 °F 30.2 °F 87% 29.87 in 4.0 mi East 20.7 mph - N/A Rain Light Rain
3:54 PM 32.9 °F 20.4 °F 32.0 °F 96% 29.86 in 4.0 mi East 23.0 mph - N/A Rain Light Rain
4:13 PM 33.8 °F 22.2 °F 32.0 °F 93% 29.86 in 4.0 mi East 20.7 mph - N/A Rain Light Rain
4:29 PM 33.8 °F 21.9 °F 32.0 °F 93% 29.85 in 3.0 mi ENE 21.9 mph - N/A Rain Rain
4:54 PM 33.8 °F 20.8 °F 32.0 °F 93% 29.82 in 2.0 mi East 26.5 mph - N/A Rain Rain
5:14 PM 33.8 °F 22.8 °F 32.0 °F 93% 29.83 in 2.5 mi East 18.4 mph - N/A Rain Rain
5:34 PM 33.8 °F 21.6 °F 32.0 °F 93% 29.81 in 2.5 mi East 23.0 mph - N/A Rain Rain
5:54 PM 33.8 °F 21.9 °F 32.0 °F 93% 29.81 in 2.5 mi East 21.9 mph - N/A Rain Rain
6:14 PM 35.6 °F 25.5 °F 33.8 °F 93% 29.81 in 2.0 mi East 17.3 mph - N/A Rain Light Rain
6:51 PM 35.6 °F 24.8 °F 33.8 °F 93% 29.83 in 1.8 mi East 19.6 mph - N/A Rain Light Rain
7:14 PM 35.6 °F 25.5 °F 33.8 °F 93% 29.82 in 1.2 mi East 17.3 mph - N/A Rain Light Rain
7:38 PM 35.6 °F 26.6 °F 33.8 °F 93% 29.80 in 1.8 mi East 13.8 mph - N/A Rain Light Rain
8:14 PM 35.6 °F 27.1 °F 35.6 °F 100% 29.80 in 7.0 mi East 12.7 mph - N/A   Overcast
8:34 PM 35.6 °F 26.6 °F 35.6 °F 100% 29.81 in 7.0 mi East 13.8 mph - N/A   Overcast
8:53 PM 34.9 °F 24.6 °F 34.0 °F 97% 29.82 in 3.0 mi East 17.3 mph - N/A Rain Light Rain
9:10 PM 35.6 °F 25.9 °F 33.8 °F 93% 29.82 in 2.0 mi East 16.1 mph - N/A Rain Light Rain
9:34 PM 33.8 °F 23.2 °F 33.8 °F 100% 29.81 in 2.5 mi East 17.3 mph - N/A Rain Light Rain
9:53 PM 33.8 °F 23.2 °F 33.8 °F 100% 29.80 in 2.5 mi East 17.3 mph - N/A   Overcast
10:13 PM 33.8 °F 22.5 °F 33.8 °F 100% 29.81 in 2.5 mi East 19.6 mph - N/A Rain Light Rain
10:34 PM 33.8 °F 22.2 °F 33.8 °F 100% 29.80 in 2.5 mi East 20.7 mph - N/A Rain Light Rain
11:37 PM 33.8 °F 23.9 °F 33.8 °F 100% 29.78 in 2.5 mi East 15.0 mph - N/A Rain Light Rain